Location: Cactus School
(34.5700°N, 118.0931°W)
Time: 07:52:14
(UTC-08:00)

Tiros 1 - Pass Details

Date: 30 November 2019
Orbit: 630 x 664 km, 48.4° (Epoch: 10 December)

Event Time Altitude Azimuth Distance (km) Brightness Sun altitude
Rises 16:49:38 0° 299° (WNW) 2,916 11.1 -2.3°
Reaches altitude 10° 16:52:07 10° 290° (WNW) 2,008 10.4 -2.7°
Maximum altitude 16:56:16 34° 226° (SW) 1,043 9.1 -3.5°
Drops below altitude 10° 17:00:27 10° 161° (SSE) 2,011 9.8 -4.3°
Sets 17:02:56 0° 152° (SSE) 2,921 10.5 -4.8°
